Hourly Data Report for October 03, 2017

All times are specified in Local Standard Time (LST). Add 1 hour to adjust for Daylight Saving Time where and when it is observed.

GEORGE ISLAND (AUT)
MANITOBA

52°49'07.014" N
97°36'59.028" W
222.50 m
5030984
71445
WWS

Download Data

Hourly Data (October 2017)
Hourly Data Report for October 3, 2017
Temp Definition
°C
Dew Point Temp Definition
°C
Rel Hum Definition
%
Wind Dir Definition
10's deg

Wind Spd Definition
km/h
Visibility Definition
km
Stn Press Definition
kPa
Hmdx Definition


Wind Chill Definition


Weather Definition


TIME
00:00 10.9 5.6 70 25 29   98.23     LegendNANA
01:00 11.1 5.5 68 25 20   98.31     LegendNANA
02:00 11.1 5.6 69 25 11   98.38     LegendNANA
03:00 11.1 6.3 73 30 7   98.33     LegendNANA
04:00 10.9 6.2 73 30 3   98.50     LegendNANA
05:00 11.2 6.5 73 19 2   98.58     LegendNANA
06:00 11.3 5.9 69 14 6   98.65     LegendNANA
07:00 11.4 7.0 75 21 10   98.74     LegendNANA
08:00
09:00 8.1 7.1 94 4 41   98.93     LegendNANA
10:00 7.7 6.5 92 5 43   98.97     LegendNANA
11:00
12:00
13:00 8.1 6.0 87 8 19   99.09     LegendNANA
14:00 8.4 5.8 84 7 23   99.11     LegendNANA
15:00 8.2 6.0 86 5 26   99.18     LegendNANA
16:00 7.8 6.4 91 5 24   99.21     LegendNANA
17:00 7.7 6.4 91 5 25   99.24     LegendNANA
18:00 7.5 5.4 87 7 24   99.24     LegendNANA
19:00 7.6 5.6 87 8 19   99.27     LegendNANA
20:00 7.6 6.0 89 8 13   99.25     LegendNANA
21:00 7.5 5.8 89 8 6   99.26     LegendNANA
22:00 7.4 6.0 91 6 5   99.23     LegendNANA
23:00 7.4 6.3 92 4 3   99.19     LegendNANA

Notes on Data Quality.

Legend

  • E = Estimated
  • M = Missing
  • NA = Not Available
  • ‡ = Partner data that is not subject to review by the National Climate Archives
Date modified: